#timestamp,LO_Frequency,Hit,StdDev 
1645290015.3,286047013.0,N
1645290035.2,286047015.4,N
1645290055.0,286047013.1,N
1645290055.9,286047013.1,N
1645290075.8,286047011.0,N
1645290095.6,286047010.8,N
1645290115.4,286047011.9,N
1645290135.3,286047007.7,N
1645290155.1,286047012.5,N
1645290175.9,286047023.1,N
1645290195.7,286047029.2,N
1645290215.5,286047026.0,N
1645290235.4,286047017.8,N
1645290255.2,286047009.9,N
1645290275.0,286047002.3,N
1645290275.9,286047002.3,N
1645290295.8,286047002.5,N
1645290315.6,286047004.8,N
1645290335.5,286047001.9,N
1645290355.3,286047002.6,N
1645290375.1,286047003.9,N
1645290395.9,286047006.8,N
1645290415.7,286047011.4,N
1645290435.5,286047015.6,N
1645290455.4,286047015.8,N
1645290475.2,286047013.8,N
1645290495.1,286047003.0,N
1645290496.0,286047003.0,N
1645290515.8,286046998.7,N
1645290535.6,286046995.2,N
1645290555.5,286046990.5,N
1645290575.3,286046988.7,N
1645290595.2,286046983.8,N
1645290615.9,286046977.9,N
1645290635.7,286046978.0,N
1645290655.6,286046980.3,N
1645290675.4,286046981.0,N
1645290695.2,286046982.1,N
1645290715.1,286046991.2,N
1645290716.0,286046991.2,N
1645290735.8,286046991.7,N
1645290755.7,286046994.3,N
1645290775.5,286046996.2,N
1645290795.3,286046990.5,N
1645290815.2,286046986.4,N
1645290835.0,286046983.6,N
1645290835.9,286046983.6,N
1645290855.7,286046981.5,N
1645290875.6,286046980.0,N
1645290895.4,286046979.0,N
1645290915.3,286046981.3,N
1645290935.1,286046979.6,N
1645290936.0,286046979.6,N
1645290955.8,286046984.1,N
1645290975.7,286046985.1,N
1645290995.5,286046982.3,N
1645291015.4,286046979.0,N
1645291035.2,286046976.2,Y
1645291055.0,286046993.2,P
1645291055.9,286046993.2,N
1645291105.8,286046998.0,E
1645291115.7,286046995.0,N
1645291135.6,286046992.5,P
1645291155.4,286046989.3,P
1645291175.2,286046986.8,Y
1645291195.1,286046995.4,P
1645291196.0,286046995.4,N
1645291215.8,286046999.5,N
1645291235.7,286046994.4,N
1645291255.5,286046990.5,Y
1645291275.3,286046994.1,P
1645291295.2,286046994.4,P
1645291315.0,286046997.5,P
1645291315.9,286046997.5,N
1645291335.7,286046993.3,Y
1645291355.6,286047001.0,P
1645291375.4,286046999.0,N
1645291395.3,286046995.0,N
1645291415.1,286046993.4,N
1645291416.0,286046993.4,N
1645291435.8,286046994.5,N
1645291455.7,286046995.3,N
1645291475.5,286046993.8,N
1645291495.4,286046991.7,Y
1645291515.2,286046998.6,P
1645291535.0,286046996.5,N
1645291535.9,286046996.5,N
1645291555.8,286047001.3,N
1645291575.6,286047004.5,N
1645291595.4,286047007.0,N
1645291615.3,286047004.7,N
1645291635.1,286047001.6,N
1645291655.9,286047002.4,N
1645291675.7,286047004.4,N
1645291695.5,286047001.4,N
1645291715.4,286047001.6,N
1645291735.2,286047001.8,N
1645291755.0,286047001.1,N
1645291755.9,286047001.1,N
1645291775.8,286046999.3,N
1645291795.6,286047005.6,N
1645291815.5,286047010.6,Y
1645291835.3,286047008.4,P
1645291855.1,286047008.5,N
1645291875.9,286047006.5,N
1645291895.7,286047007.8,N
1645291915.5,286047010.6,Y
1645291935.4,286047004.2,P
1645291955.2,286047005.9,P
1645291975.1,286047005.6,P
1645291976.0,286047005.6,Y
1645291995.8,286046998.9,P
1645292015.6,286046996.1,N
1645292065.5,286046995.9,E
1645292075.4,286046995.7,N
1645292095.3,286046999.3,P
1645292115.1,286046997.3,N
1645292135.8,286046994.9,Y
1645292155.7,286046995.4,P
1645292175.5,286047002.4,N
1645292195.4,286046996.8,N
1645292215.2,286046997.4,N
1645292235.0,286046995.5,N
1645292235.9,286046995.5,N
1645292255.8,286046996.0,N
1645292275.6,286046996.4,N
1645292295.4,286046995.1,N
1645292315.3,286046992.8,Y
1645292335.1,286046993.3,P
1645292355.9,286046996.4,N
1645292375.7,286046994.0,P
1645292395.5,286046994.1,Y
1645292415.4,286046999.2,P
1645292435.2,286046997.8,N
1645292455.1,286046997.3,N
1645292456.0,286046997.3,N
1645292475.8,286046995.7,Y
1645292495.6,286047001.2,P
1645292515.5,286047005.0,N
1645292535.3,286047003.2,N
1645292555.1,286047002.2,N
1645292575.9,286047006.3,N
1645292595.7,286047007.6,N
1645292615.6,286047006.8,N
1645292635.4,286047005.0,N
1645292655.2,286047010.5,Y
1645292675.1,286047014.2,P
1645292676.0,286047014.2,N
1645292695.8,286047016.0,P
1645292715.7,286047019.9,Y
1645292735.5,286047012.8,P
1645292755.3,286047019.4,P
1645292775.2,286047020.8,P
1645292795.0,286047017.8,Y
1645292795.9,286047017.8,P
1645292815.7,286047000.6,N
1645292835.6,286046998.5,N
1645292855.4,286046992.5,N
1645292875.3,286046991.8,N
1645292895.1,286046992.3,N
1645292896.0,286046992.3,N
1645292915.8,286046986.9,N
1645292935.7,286046987.7,N
1645292955.5,286046990.0,N
1645292975.3,286046989.4,N
1645292995.2,286046996.0,N
1645293015.0,286046995.8,N
1645293015.9,286046995.8,N
1645293035.8,286046997.9,N
1645293055.6,286046997.1,N
1645293075.4,286046993.3,N
1645293095.3,286046997.4,N
1645293115.1,286047004.3,N
1645293135.9,286047005.6,N
1645293155.7,286047011.9,N
1645293175.5,286047003.4,N
1645293195.4,286047001.7,N
1645293215.2,286046999.7,N
1645293235.0,286046999.1,N
1645293235.9,286046999.1,N
1645293255.8,286047002.8,N
1645293275.6,286046997.7,N
1645293295.5,286046997.4,N
1645293315.3,286046994.8,N
1645293335.1,286046997.1,N
1645293355.9,286046996.0,N
1645293375.7,286046995.1,N
1645293395.5,286046991.9,N
1645293415.4,286046999.6,N
1645293435.2,286046998.7,N
1645293455.0,286046995.9,N
1645293456.0,286046995.9,N
1645293475.8,286046998.7,N
1645293495.6,286046999.6,N
1645293515.5,286047000.6,N
1645293535.3,286047007.8,N
1645293555.1,286047006.9,N
1645293575.9,286047003.0,N
1645293595.7,286047002.4,N
